Powrót do katalogu

STARLINK-5266

AktywnyŁącznośćVLEO
NORAD 55290·PAYLOAD·🇺🇸 United States

Wystrzelony Jan 19, 2023 z Vandenberg Space Force Base

Loading…

Następne Przeloty (najbliższe 24 godziny)

TLE

ŚwieżeSource: CelesTrak SupGP

Epoka: Sep 14, 2026, 21:24 UTC

1 55290C 23010X   26257.89215278  .00065000  00000+0  54470-2 0  2570
2 55290  69.9995 267.4423 0003824 265.2489 287.4765 14.98297797    14

Śledź STARLINK-5266 w czasie rzeczywistym z AllMySat

Download on the App Store